Flag Weather past 2 weeks in Gera, Thuringia, Germany

Now
34 °F

Passing clouds.


Feels Like: 34 °F
Forecast: 29 / 40 °F
Wind: 2 mph from South

Location: Gera-Leumnitz

Current Time: Nov 27, 2014 at 7:30:58 PM

Latest Report: Nov 27, 2014 at 7:00 PM


Visibility: 5 mi

Pressure: 29.94 "Hg

Humidity: 84%

Dew point: 29 °F

Location of GeraLocation

Historic Weather in Gera — Graph

°F

Gera temperature yesterday

Maximum temperature yesterday: 38 °F (at 2:00 PM)
Minimum temperature yesterday: 23 °F (at 8:00 AM)
Average temperature yesterday: 30 °F

Past Weeks' High & Low Weather Summary

 TemperatureHumidityPressure
High56 °F (Nov 14, 2:00 PM)100% (Nov 12, 6:00 PM)30.39 "Hg (Nov 12, 6:00 PM)
Low23 °F (Nov 26, 8:00 AM)65% (Nov 23, 2:00 PM)29.54 "Hg (Nov 16, 7:00 AM)
Average40 °F91%30.04 "Hg
* Reported Nov 12 6:00 PM — Nov 27 6:00 PM, Gera, Weather by CustomWeather, © 2014

Note: Actual official high and low records may vary slightly from our data, if they occured in-between our weather recording intervals... More about our weather records

Advertising

Gera weather history for previous 24 hours

 ConditionsComfort  
Time TempWeatherWind HumidityBarometerVisibility
6:00 PM
Nov 27
33 °FPassing clouds.1 mph87%29.93 "Hg5 mi
5:00 PM35 °FOvercast.1 mph83%29.93 "Hg6 mi
4:00 PM36 °FPartly sunny.1 mph79%29.92 "Hg6 mi
3:00 PM37 °FPartly sunny.2 mph75%29.92 "Hg7 mi
2:00 PM38 °FScattered clouds.2 mph74%29.93 "Hg7 mi
1:00 PM38 °FScattered clouds.2 mph74%29.93 "Hg6 mi
12:00 PM37 °FScattered clouds.1 mph73%29.95 "Hg6 mi
11:00 AM34 °FFog.1 mph84%29.97 "Hg4 mi
10:00 AM31 °FFog.1 mph87%29.99 "Hg4 mi
9:00 AM30 °FFog.1 mph89%29.99 "Hg4 mi
8:00 AM28 °FFog.2 mph95%30.00 "Hg4 mi
7:00 AM28 °FFog.2 mph95%30.00 "Hg4 mi
6:00 AM29 °FFog.2 mph92%30.00 "Hg4 mi
5:00 AM28 °FPassing clouds.1 mph96%30.01 "Hg2 mi
4:00 AM28 °FFog.1 mph98%30.02 "Hg1 mi
3:00 AM29 °FFog.1 mph96%30.03 "Hg1 mi
2:00 AM29 °FFog.1 mph96%30.05 "Hg1 mi
1:00 AM29 °FFog.1 mph96%30.07 "Hg1 mi
12:00 AM30 °FFog.1 mph92%30.07 "Hg3 mi
11:00 PM
Nov 26
31 °FFog.1 mph90%30.09 "Hg4 mi
10:00 PM31 °FOvercast.3 mph87%30.09 "Hg5 mi
9:00 PM31 °FOvercast.1 mph89%30.10 "Hg5 mi
8:00 PM31 °FFog.3 mph91%30.11 "Hg4 mi
7:00 PM29 °FFog.2 mph91%30.11 "Hg4 mi
Weather by CustomWeather, © 2014

See weather overviewHow to use our weather pages